Regional Weather Roundup
Issued by NWS

Home | Current Version | Previous Version | Text Only | Print | Product List | Glossary Off
Versions: 1 2 3 4 5 6 7 8 9 10 11 12 13 14 15 16 17 18 19 20 21 22 23 24 25 26 27 28 29 30 31 32 33 34 35 36 37 38 39 40 41 42 43 44 45 46 47 48 49 50

000
ASUS43 KDMX 310507
RWRIA

WEATHER ROUNDUP FOR IOWA
NATIONAL WEATHER SERVICE DES MOINES IA
1200 AM CDT SUN AUG 31 2014

NOTE: "FAIR" INDICATES FEW OR NO CLOUDS BELOW 12,000 FEET WITH NO
SIGNIFICANT WEATHER AND/OR OBSTRUCTIONS TO VISIBILITY.

* - THESE STATIONS ARE NOT NWS STATIONS...THUS NOT UNDER NWS
QUALITY CONTROL.  THEY ALSO DO NOT REPORT WEATHER SUCH
AS PRECIPITATION OR FOG.

IAZ001>003-012>014-020>022-031>034-043>046-310600-
   NORTHWEST IOWA

CITY           SKY/WX    TMP DP  RH WIND       PRES   REMARKS
CARROLL *      CLEAR     61  61 100 SE3       29.88F FOG
CHEROKEE *     CLEAR     61  61 100 CALM      29.87S
DENISON *      CLEAR     64  64 100 E5        29.86S
LE MARS *        N/A     64  61  88 VRB5      29.85F
ORANGE CITY *  CLEAR     64  59  82 SE3       29.86F
SHELDON *      CLEAR     61  61 100 E5        29.85F
SIOUX CITY     CLEAR     66  62  87 SE8       29.84S
SPENCER        CLEAR     61  59  93 SE5       29.87F
STORM LAKE *   CLEAR     61 N/A N/A SE7       29.88F
$$

IAZ055>058-069>071-079>083-090>094-310600-
   SOUTHWEST IOWA

CITY           SKY/WX    TMP DP  RH WIND       PRES   REMARKS
ATLANTIC *     CLEAR     63  63 100 CALM      29.88S
AUDUBON *      CLEAR     63  61  94 CALM      29.90S
CLARINDA *     CLEAR     66  66 100 CALM      29.90F
COUNCIL BLFS * CLEAR     68  66  94 SE7       29.86F
CRESTON *      CLEAR     64  64 100 SE6       29.91S
HARLAN  *      CLEAR     64  64 100 CALM      29.91S
LAMONI         CLEAR     72  67  84 S5        29.90F
RED OAK *      CLEAR     66  64  94 CALM      29.88F
SHENANDOAH *   CLEAR     68  66  94 SE7       29.88F
$$

IAZ047>049-059>061-072>074-084-310600-
   CENTRAL IOWA

CITY           SKY/WX    TMP DP  RH WIND       PRES   REMARKS
AMES           CLEAR     63  62  97 CALM      29.89F
ANKENY *       CLEAR     63  63 100 CALM      29.89S
CHARITON *     CLEAR     68  66  94 CALM      29.90F FOG
DES MOINES     CLEAR     69  65  86 CALM      29.88F
GRINNELL*      CLEAR     66  64  94 CALM      29.91S
KNOXVILLE *    CLEAR     70  66  88 CALM      29.89S
MARSHALLTOWN   CLEAR     64  64 100 CALM      29.89F
PELLA *        CLEAR     68  67  97 CALM      29.91S
PERRY *        FOG       63  63 100 CALM      29.89S VSB 1/2
$$

IAZ004>006-015-016-023>025-035-036-310600-
   NORTH CENTRAL IOWA

CITY           SKY/WX    TMP DP  RH WIND       PRES   REMARKS
ALGONA *       CLEAR     63  61  94 S6        29.89F
CLARION *      CLEAR     61  61 100 SE5       29.90S
ESTHERVILLE    CLEAR     60  60 100 S6        29.87F FOG
FORT DODGE *   CLEAR     61  59  94 CALM      29.89F
MASON CITY     PTCLDY    62  61  96 S3        29.91F
FOREST CITY *  CLEAR     61  61 100 CALM      29.89F FOG
IOWA FALLS *     N/A     63  63 100 SW6       29.91S
$$

IAZ007>011-017>019-026>030-037>042-050>054-066-310600-
   NORTHEAST IOWA

CITY           SKY/WX    TMP DP  RH WIND       PRES   REMARKS
CEDAR RAPIDS   CLEAR     64  64 100 S5        29.90S
CHARLES CITY * CLEAR     64  63  94 CALM      29.91S
CLINTON *      CLEAR     66  64  94 CALM      29.94R
DECORAH *      PTCLDY    66  66 100 CALM      29.90S
DUBUQUE        CLEAR     64  63  96 CALM      29.92R
MONTICELLO *   CLEAR     64  64 100 CALM      29.91R
OELWEIN *      CLEAR     64  63  94 CALM      29.91S
WATERLOO       CLEAR     63  61  93 E3        29.89S
$$

IAZ064-065-067-068-078-310600-
   EAST CENTRAL IOWA

CITY           SKY/WX    TMP DP  RH WIND       PRES   REMARKS
DAVENPORT      CLEAR     66  64  93 S3        29.92R
IOWA CITY      CLEAR     67  66  97 CALM      29.92R
MT. PLEASANT * CLEAR     66  64  94 CALM      29.92S FOG
MUSCATINE *    CLEAR     66  64  94 CALM      29.91S
QUAD CITIES    CLEAR     67  66  97 CALM      29.90F
$$

IAZ062-063-075>077-085>089-095>099-310600-
   SOUTHEAST IOWA

CITY           SKY/WX    TMP DP  RH WIND       PRES   REMARKS
BURLINGTON     LGT RAIN  68  67  96 CALM      29.92R
FAIRFIELD *    CLEAR     68  64  88 SE5       29.91F
FORT MADISON * CLEAR     70  70 100 CALM      29.92S FOG
KEOKUK *       CLEAR     70  68  94 CALM      29.91S
OSKALOOSA *      N/A     66  64  94 S5        29.90F
CENTERVILLE *  CLEAR     66  66 100 SE5       29.93S
OTTUMWA        CLEAR     65  64  97 S5        29.90S
WASHINGTON *   CLEAR     64  64 100 S6        29.91S FOG
$$

ABBREVIATIONS USED IN REMARKS
   TC - TEMPERATURES IN CELSIUS
  WCI - WIND CHILL INDEX
   HX - HEAT INDEX
  VSB - VISIBILITY
$$




USA.gov is the U.S. government's official web portal to all federal, state and local government web resources and services.